Grand Rapids, MI

2:31 PM EDT on September 18, 2019 (GMT -0400)
Gerald R. Ford International

Weather History for KGRR - August, 2019

Change the Weather History Date:

Tuesday, August 20, 2019

  Actual Average Record
Temperature  
Mean Temperature 76 °F 71 °F  
Max Temperature 84 °F 80 °F 97 °F (1947)
Min Temperature 68 °F 61 °F 43 °F (1992)
Degree Days  
Heating Degree Days 0 0  
Month to date heating degree days 0 0  
Since 1 June heating degree days 49 51  
Since 1 July heating degree days 0 6  
Cooling Degree Days 11 6  
Month to date cooling degree days 164 135  
Year to date cooling degree days 613 566  
Since 1 June cooling degree days 607 519  
Growing Degree Days 26 (Base 50)    
Moisture  
Dew Point 68 °F    
Average Humidity 79    
Maximum Humidity 90    
Minimum Humidity 67    
Precipitation  
Precipitation 0.22 in 0.10 in 2.34 in (2007)
Month to date precipitation 1.97 2.31  
Year to date precipitation 28.82 23.44  
Snow  
Snow 0.00 in 0.00 in 0.00 in ()
Month to date snowfall 0.0 0.0  
Since 1 June snowfall 0.0 0.0  
Since 1 July snowfall 0.0 0.0  
Snow Depth 0.00 in    
Sea Level Pressure  
Sea Level Pressure 29.99 in    
Wind  
Wind Speed 5 mph ()    
Max Wind Speed 18 mph    
Max Gust Speed 24 mph    
Visibility 9.4 miles    
Events Rain , Thunderstorm    
T = Trace of Precipitation, MM = Missing Value Source: Averaged Metar Reports

Daily Weather History Graph

Daily Weather History Graph

Search for Another Location

Airport or City:

Astronomy

Aug. 20, 2019 Rise Set
Actual Time 6:53 AM EDT 8:36 PM EDT
Civil Twilight 6:23 AM EDT 9:06 PM EDT
Nautical Twilight 5:46 AM EDT 9:43 PM EDT
Astronomical Twilight 5:07 AM EDT 10:22 PM EDT
Moon 11:17 PM EDT (8/20) 11:37 AM EDT (8/20)
Length of Visible Light 14h 43m
Length of Day
13h 43m
Waning Gibbous, 78% of the Moon is Illuminated
Aug 20
Waning Gibbous
Aug 23
Last Quarter
Aug 30
New
Sep 5
First Quarter
Sep 14
Full

Hourly Weather History & Observations

Time (EDT) Temp. Heat Index Dew Point Humidity Pressure Visibility Wind Dir Wind Speed Gust Speed Precip Events Conditions
12:53 AM 70.0 °F - 66.0 °F 87% 30.03 in 10.0 mi NE 3.5 mph - N/A   Partly Cloudy
1:53 AM 71.1 °F - 66.9 °F 87% 30.04 in 10.0 mi Calm Calm - 0.01 in   Overcast
2:53 AM 69.1 °F - 66.0 °F 90% 30.04 in 10.0 mi East 3.5 mph - N/A   Partly Cloudy
3:53 AM 69.1 °F - 64.9 °F 87% 30.05 in 10.0 mi NE 3.5 mph - N/A   Scattered Clouds
4:53 AM 69.1 °F - 64.9 °F 87% 30.05 in 10.0 mi NE 5.8 mph - N/A   Mostly Cloudy
5:53 AM 68.0 °F - 63.0 °F 84% 30.04 in 10.0 mi NE 5.8 mph - N/A   Scattered Clouds
6:53 AM 68.0 °F - 63.0 °F 84% 30.03 in 10.0 mi East 8.1 mph - N/A   Overcast
7:53 AM 69.1 °F - 62.1 °F 78% 30.01 in 10.0 mi ENE 3.5 mph - N/A   Mostly Cloudy
8:53 AM 71.1 °F - 63.0 °F 75% 30.01 in 10.0 mi East 5.8 mph - N/A   Mostly Cloudy
9:53 AM 73.9 °F - 66.9 °F 79% 30.02 in 10.0 mi ESE 9.2 mph - N/A   Overcast
10:53 AM 78.1 °F - 70.0 °F 76% 30.01 in 10.0 mi South 5.8 mph - N/A   Overcast
11:53 AM 82.0 °F 86.7 °F 72.0 °F 71% 30.00 in 9.0 mi SW 6.9 mph - N/A   Overcast
12:53 PM 82.9 °F 88.8 °F 73.0 °F 72% 30.01 in 10.0 mi SW 8.1 mph - N/A   Overcast
1:04 PM 82.9 °F 88.8 °F 73.0 °F 72% 30.02 in 10.0 mi SW 10.4 mph - N/A   Overcast
1:53 PM 82.9 °F 88.0 °F 72.0 °F 69% 29.97 in 10.0 mi SW 9.2 mph - N/A   Overcast
2:08 PM 84.0 °F 90.2 °F 73.0 °F 69% 29.98 in 10.0 mi SSW 8.1 mph - N/A   Overcast
2:53 PM 82.9 °F 88.0 °F 72.0 °F 69% 29.98 in 10.0 mi SSW 9.2 mph - N/A   Overcast
3:22 PM 84.0 °F 89.6 °F 72.0 °F 67% 29.98 in 10.0 mi WSW 8.1 mph - N/A Thunderstorm Thunderstorm
3:53 PM 82.9 °F 88.0 °F 72.0 °F 69% 29.96 in 10.0 mi SSW 8.1 mph - N/A Thunderstorm Thunderstorm
4:40 PM 79.0 °F - 72.0 °F 79% 29.98 in 2.0 mi WSW 17.3 mph 24.2 mph 0.03 in Rain , Thunderstorm Light Thunderstorms and Rain
4:53 PM 75.0 °F - 69.1 °F 82% 29.95 in 3.0 mi SSW 12.7 mph - 0.19 in Rain , Thunderstorm Light Thunderstorms and Rain
5:53 PM 73.9 °F - 69.1 °F 85% 29.96 in 10.0 mi WSW 13.8 mph - 0.02 in Thunderstorm Thunderstorm
6:53 PM 73.9 °F - 64.9 °F 73% 29.93 in 10.0 mi SW 5.8 mph - N/A   Mostly Cloudy
7:53 PM 73.0 °F - 66.0 °F 79% 29.90 in 10.0 mi Calm Calm - N/A   Mostly Cloudy
8:53 PM 73.0 °F - 66.0 °F 79% 29.90 in 10.0 mi North 3.5 mph - N/A   Mostly Cloudy
9:53 PM 72.0 °F - 68.0 °F 87% 29.92 in 10.0 mi ESE 4.6 mph - N/A   Mostly Cloudy
10:53 PM 72.0 °F - 66.9 °F 84% 29.94 in 10.0 mi SW 3.5 mph - N/A   Mostly Cloudy
11:53 PM 72.0 °F - 66.9 °F 84% 29.95 in 10.0 mi SW 10.4 mph - N/A   Mostly Cloudy